This demonstration page uses our WeatherBlox Daily Observations layout. Learn more.

Hourly Observations for June 28, 2019

Temp ( °F °C ) Dew Point ( °F °C ) Humidity (%) Winds ( mph kmh ) Pressure ( in mb ) Visibility ( mi km ) Precip ( " mm )
12:15 am 00:15 Clear 68 20.2 67 19.4 95 95 SW 3 6 29.91 1013 10 16.09344 0 0
12:35 am 00:35 Clear 67 19.7 66 18.8 95 95 WNW 6 9 29.94 1014 7 11.265408 0 0
12:55 am 00:55 Clear 67 19.5 66 18.9 96 96 NW 7 11 29.94 1014 10 16.09344 0 0
1:15 am 01:15 Clear 68 20 67 19.2 95 95 NW 6 9 29.88 1012 10 16.09344 0 0
1:35 am 01:35 Clear 66 19 65 18.5 97 97 WNW 3 6 29.91 1013 10 16.09344 0 0
1:55 am 01:55 Clear 66 18.7 65 18.4 98 98 WNW 3 6 29.91 1013 7 11.265408 0 0
2:15 am 02:15 Clear 64 17.7 64 17.5 99 99 NNW 7 11 29.91 1013 7 11.265408 0 0
2:35 am 02:35 Clear 65 18.4 64 18 98 98 SSW 12 19 29.91 1013 10 16.09344 0 0
2:55 am 02:55 Clear 67 19.4 66 18.7 96 96 Calm 29.91 1013 10 16.09344 0 0
3:15 am 03:15 Clear 65 18.5 65 18.1 98 98 W 5 7 29.91 1013 7 11.265408 0 0
3:35 am 03:35 Clear 65 18.1 64 17.9 99 99 Calm 29.91 1013 7 11.265408 0 0
3:55 am 03:55 Clear 64 17.9 64 17.7 99 99 NNW 3 6 29.91 1013 7 11.265408 0 0
4:15 am 04:15 Clear with Mist and Fog 63 17.3 63 17.3 100 100 Calm 29.91 1013 5 8.04672 0 0
4:35 am 04:35 Clear 63 17.2 63 17.2 100 100 Calm 29.91 1013 7 11.265408 0 0
4:55 am 04:55 Clear 63 17.1 62 16.8 98 98 SSE 6 9 29.91 1013 7 11.265408 0 0
5:15 am 05:15 Clear 63 17.4 63 17.3 99 99 Calm 29.91 1013 7 11.265408 0 0
5:35 am 05:35 Clear 62 16.9 62 16.9 100 100 Calm 29.91 1013 7 11.265408 0 0
5:55 am 05:55 Clear 62 16.8 62 16.8 100 100 SSW 5 7 29.94 1014 7 11.265408 0 0
6:15 am 06:15 Sunny with Mist and Fog 62 16.7 62 16.7 100 100 Calm 29.94 1014 2.5 4.02336 0 0
6:35 am 06:35 Mostly Cloudy with Mist and Fog 61 16.2 61 16.2 100 100 Calm 29.97 1015 1.5 2.414016 0 0
6:55 am 06:55 Sunny with Mist and Fog 62 16.9 62 16.9 100 100 NNE 3 6 29.94 1014 4 6.437376 0 0
7:15 am 07:15 Sunny with Mist and Fog 64 18 64 18 100 100 Calm 29.94 1014 4 6.437376 0 0
7:35 am 07:35 Sunny with Mist and Fog 66 18.9 65 18.4 97 97 NNE 3 6 29.94 1014 5 8.04672 0 0
7:55 am 07:55 Sunny with Mist and Fog 68 20 67 19.2 95 95 Calm 29.97 1015 5 8.04672 0 0
8:15 am 08:15 Sunny 70 21.1 68 19.8 92 92 Calm 29.94 1014 7 11.265408 0 0
8:35 am 08:35 Sunny 73 22.8 67 19.5 82 82 Calm 29.94 1014 10 16.09344 0 0
8:50 am 08:50 Sunny 75 23.9 65 18.2 71 71 Calm 29.91 1013 10 16.09344 0 0
9:15 am 09:15 Sunny 76 24.5 64 17.8 66 66 Calm 29.91 1013 10 16.09344 0 0
9:35 am 09:35 Sunny 78 25.6 64 17.8 62 62 Calm 29.91 1013 10 16.09344 0 0
9:55 am 09:55 Sunny 80 26.4 64 17.7 59 59 Calm 29.91 1013 10 16.09344 0 0
10:15 am 10:15 Sunny 81 27.2 65 18.5 59 59 SSW 3 6 29.91 1013 10 16.09344 0 0
10:35 am 10:35 Sunny 83 28.2 64 17.9 54 54 S 6 9 29.88 1012 10 16.09344 0 0
10:55 am 10:55 Sunny 85 29.2 63 17.1 48 48 S 5 7 29.88 1012 10 16.09344 0 0
11:15 am 11:15 Sunny 86 29.9 63 17.2 46 46 S 6 9 29.88 1012 10 16.09344 0 0
11:35 am 11:35 Sunny 86 30.1 64 18 48 48 Calm 29.88 1012 10 16.09344 0 0
11:55 am 11:55 Sunny 87 30.8 65 18.6 48 48 S 5 7 29.88 1012 10 16.09344 0 0
12:15 pm 12:15 Sunny 88 31.3 62 16.9 42 42 SSE 6 9 29.85 1011 10 16.09344 0 0
12:35 pm 12:35 Sunny 89 31.6 65 18.1 45 45 SSE 7 11 29.85 1011 10 16.09344 0 0
12:55 pm 12:55 Sunny 91 32.5 64 17.8 42 42 SSE 9 15 29.85 1011 10 16.09344 0 0
1:15 pm 13:15 Sunny 91 32.5 65 18.1 42 42 SSE 9 15 29.85 1011 10 16.09344 0 0
1:35 pm 13:35 Sunny 92 33.5 65 18.4 41 41 S 12 19 29.85 1011 10 16.09344 0 0
1:55 pm 13:55 Sunny 93 33.9 65 18.3 40 40 S 8 13 29.85 1011 10 16.09344 0 0
2:15 pm 14:15 Sunny 93 33.7 64 18 39 39 SE 9 15 29.85 1011 10 16.09344 0 0
2:35 pm 14:35 Sunny 94 34.2 64 17.5 37 37 SE 9 15 29.85 1011 10 16.09344 0 0
2:55 pm 14:55 Sunny 95 34.8 65 18.4 38 38 SE 9 15 29.83 1010 10 16.09344 0 0
3:15 pm 15:15 Sunny 95 34.9 64 17.9 36 36 SE 9 15 29.83 1010 10 16.09344 0 0
3:35 pm 15:35 Sunny 96 35.5 64 18 35 35 SE 9 15 29.83 1010 10 16.09344 0 0
3:55 pm 15:55 Sunny 95 35.2 64 17.6 35 35 SE 10 17 29.83 1010 10 16.09344 0 0
4:15 pm 16:15 Sunny 96 35.6 64 17.8 35 35 SSE 9 15 29.83 1010 10 16.09344 0 0
4:35 pm 16:35 Sunny 97 35.9 65 18.1 35 35 SSE 9 15 29.83 1010 10 16.09344 0 0
4:55 pm 16:55 Sunny 96 35.8 65 18.2 35 35 SE 12 19 29.83 1010 10 16.09344 0 0
5:15 pm 17:15 Sunny 96 35.7 66 19.1 38 38 SE 13 20 29.8 1009 10 16.09344 0 0
5:35 pm 17:35 Sunny 96 35.4 66 18.9 38 38 SE 12 19 29.8 1009 10 16.09344 0 0
5:55 pm 17:55 Sunny 96 35.4 66 18.7 37 37 SE 13 20 29.83 1010 10 16.09344 0 0
6:15 pm 18:15 Sunny 95 35.2 65 18.5 37 37 SE 14 22 29.8 1009 10 16.09344 0 0
6:35 pm 18:35 Sunny 95 35 64 17.6 36 36 SE 13 20 29.8 1009 10 16.09344 0 0
6:55 pm 18:55 Sunny 95 35 64 17.9 36 36 SE 9 15 29.8 1009 10 16.09344 0 0
7:15 pm 19:15 Sunny 94 34.4 65 18.2 38 38 SSE 10 17 29.8 1009 10 16.09344 0 0
7:35 pm 19:35 Sunny 93 33.7 65 18.5 41 41 SSE 10 17 29.83 1010 10 16.09344 0 0
7:55 pm 19:55 Sunny 91 33 66 19 44 44 SSE 9 15 29.83 1010 10 16.09344 0 0
8:15 pm 20:15 Sunny 89 31.8 66 19.1 47 47 SSE 7 11 29.83 1010 10 16.09344 0 0
8:35 pm 20:35 Sunny 86 30.2 67 19.3 52 52 SSE 7 11 29.85 1011 10 16.09344 0 0
8:55 pm 20:55 Sunny 85 29.3 66 19 54 54 SE 6 9 29.85 1011 10 16.09344 0 0
9:15 pm 21:15 Clear 84 29 66 18.8 54 54 SE 7 11 29.85 1011 10 16.09344 0 0
9:35 pm 21:35 Clear 81 27.4 67 19.2 61 61 E 6 9 29.85 1011 10 16.09344 0 0
9:55 pm 21:55 Clear 79 26.2 68 19.8 68 68 ESE 7 11 29.91 1013 10 16.09344 0 0
10:15 pm 22:15 Clear 78 25.6 68 20.2 72 72 ESE 7 11 29.91 1013 10 16.09344 0 0
10:35 pm 22:35 Clear 79 25.9 68 20.2 71 71 SE 8 13 29.91 1013 10 16.09344 0 0
10:55 pm 22:55 Clear 79 26.1 68 20.1 70 70 SE 7 11 29.91 1013 10 16.09344 0 0
11:15 pm 23:15 Clear 77 25 68 20 74 74 SSE 6 9 29.91 1013 10 16.09344 0 0
11:30 pm 23:30 Clear 75 24.1 67 19.7 77 77 SE 6 9 29.91 1013 10 16.09344 0 0
11:55 pm 23:55 Clear 74 23.1 67 19.4 80 80 E 7 11 29.94 1014 10 16.09344 0 0

Powered by AerisWeather